RH
15 21 23 26 31 34 38 38 43 47 56 69 68 67 74 75 75 55 55 59 46 46 41 42 50 58 60 63 62 64 66 60 59
10 17 24 26 28 31 36 40 45 50 58 67 66 61 70 75 73 70 55 63 62 46 56 41 49 54 62 60 62 65 69 57 65
11 16 22 24 26 28 31 34 38 46 52 61 62 60 62 62 65 70 67 64 67 62 54 58 51 57 59 60 62 65 71 61 64
11 14 19 20 22 24 26 30 35 40 46 54 56 57 61 62 60 60 65 63 65 66 61 62 62 63 61 59 62 66 71 68 60
10 13 14 15 17 20 24 28 30 34 39 42 48 53 62 63 63 63 59 67 64 67 69 63 66 64 65 62 59 64 69 69 58
12 13 15 16 15 17 21 25 30 30 34 34 36 49 51 55 58 60 63 66 66 68 69 68 58 63 68 66 62 64 65 67 66
11 15 17 17 17 18 20 26 34 37 31 32 33 37 43 54 59 60 60 65 68 65 69 70 68 66 67 65 62 60 60 62 65
12 13 13 17 22 24 29 30 36 41 35 35 34 42 42 51 60 62 63 67 69 68 68 68 68 68 66 66 57 49 64 63 63
13 13 11 11 16 22 27 31 36 36 42 39 40 47 47 53 62 67 68 70 72 73 71 71 71 69 68 67 50 63 76 68 60
12 13 13 14 14 16 23 26 32 35 43 40 46 52 54 58 64 69 71 69 73 75 75 72 75 71 69 70 68 74 80 83 56
12 12 12 13 9 11 18 19 15 28 31 49 51 57 58 61 65 68 71 73 74 76 72 74 73 73 73 71 66 83 84 83 66
12 13 12 12 10 12 16 17 20 24 33 40 49 56 61 62 62 65 67 74 76 73 72 72 70 68 73 75 72 89 89 86 65
10 11 12 13 12 12 15 23 21 28 31 37 50 52 56 59 62 66 68 72 76 72 70 68 58 64 68 75 73 94 92 84 53
23 20 18 18 20 21 23 28 27 34 35 38 43 46 47 56 62 68 69 74 73 74 72 67 73 72 70 73 74 75 95 94 66
34 26 27 29 32 26 26 33 34 39 52 45 48 50 52 60 65 56 53 75 75 75 74 79 77 80 70 60 70 89 98 96 90
28 32 34 36 25 34 43 48 44 47 55 53 52 56 60 61 64 63 65 73 76 66 74 61 68 58 59 53 58 66 94 98 96
41 44 50 44 42 43 54 56 53 54 60 57 58 61 62 61 63 65 64 53 58 57 54 60 55 54 54 52 59 62 66 78 82
50 54 51 49 52 56 61 62 63 61 64 63 59 59 58 60 54 63 61 62 51 52 56 51 56 54 51 54 62 66 86 98 98
57 59 58 59 58 59 61 60 63 64 64 62 59 57 48 43 40 42 50 50 58 98 94 100 100 99 75 43 75 100 100 100 100
86 63 63 65 66 65 66 66 70 76 77 67 69 63 64 45 54 40 39 42 47 49 85 100 100 100 100 100 100 100 100 100 100
Wind_Speed
20 20 23 24 25 25 25 26 25 24 22 20 21 22 20 18 19 14 14 14 12 11 10 10 11 13 13 13 12 11 9 8 8
17 19 22 25 26 26 25 25 24 24 23 23 23 24 19 19 18 19 16 16 15 12 11 10 12 14 15 14 13 12 11 10 10
18 20 22 22 23 25 25 26 25 26 25 25 24 23 20 19 20 19 18 15 16 15 14 14 13 15 15 15 14 13 13 11 11
19 19 20 21 22 22 24 22 23 25 25 24 23 22 22 21 20 21 19 18 18 17 16 15 16 15 16 16 15 15 14 13 12
17 17 16 17 18 19 21 23 24 26 25 26 25 23 22 22 21 20 21 19 19 18 17 17 17 16 16 16 17 16 16 16 14
7 8 10 12 14 17 19 20 22 23 24 27 26 23 24 22 22 22 21 20 20 19 19 19 20 18 18 18 17 16 17 17 17
4 6 8 12 14 16 16 18 18 20 23 24 23 24 25 23 23 23 21 20 20 20 20 19 19 19 18 19 18 18 18 18 18
6 4 3 7 11 12 13 15 16 19 22 20 22 21 24 23 22 20 20 21 21 20 19 18 19 19 19 19 19 17 19 18 18
17 18 16 13 12 13 14 16 17 18 19 21 20 19 23 20 19 19 20 19 20 19 20 20 20 21 20 21 17 21 20 19 18
16 16 15 12 12 13 13 15 16 19 18 17 19 20 18 19 18 20 20 18 18 20 21 19 21 21 21 22 22 20 23 24 19
18 20 18 17 15 12 12 14 14 16 16 17 18 19 19 18 19 19 18 18 20 20 19 20 19 20 21 20 19 19 21 24 22
20 20 19 17 16 14 12 13 13 12 15 17 18 19 20 20 19 18 18 20 21 17 17 17 17 17 18 20 19 17 21 22 21
20 19 17 16 16 13 13 13 12 13 15 17 19 20 20 17 18 19 20 19 18 16 16 17 16 19 18 19 19 13 18 21 16
16 13 15 13 13 13 12 9 11 14 13 19 17 16 17 16 18 18 17 17 16 16 17 16 18 17 18 18 19 19 23 27 21
21 17 15 12 11 11 11 10 11 12 14 12 13 14 15 15 16 15 15 18 16 17 17 17 18 18 18 17 19 21 25 31 33
17 15 12 8 9 9 7 7 10 11 10 11 11 13 13 14 15 16 14 16 16 15 16 16 17 17 17 16 17 17 22 27 27
9 8 6 4 6 8 6 5 6 6 8 9 11 11 11 11 13 14 14 13 14 15 16 17 17 17 17 16 13 14 14 15 15
4 2 1 2 4 7 8 8 7 7 5 3 7 7 8 9 10 12 13 13 13 15 15 16 16 16 16 15 14 15 13 14 15
4 5 6 5 5 6 7 7 7 8 6 5 3 3 6 5 7 9 11 10 12 7 7 9 10 12 11 15 9 16 18 17 20
5 6 8 8 8 7 6 7 8 8 6 5 5 3 3 4 4 6 8 9 12 12 5 4 7 12 12 11 16 25 26 25 27
Wind_Direction
193 200 202 203 199 199 199 199 195 196 194 199 201 204 207 206 209 214 217 211 221 212 220 210 212 199 213 209 207 212 202 203 218
214 195 198 203 201 201 200 200 199 196 194 198 198 202 203 206 207 215 215 222 206 221 215 216 208 207 210 208 208 206 200 219 205
206 195 198 201 203 204 204 203 200 199 198 197 199 202 204 207 207 209 214 210 216 214 213 214 204 206 208 207 208 205 204 208 204
204 198 196 199 201 207 207 205 202 203 204 203 200 201 203 206 209 210 210 213 210 213 211 204 212 198 205 208 205 204 204 220 211
210 204 209 209 206 202 204 205 205 204 204 205 204 202 201 203 204 206 208 210 211 208 209 208 205 205 203 209 210 206 209 213 213
247 246 237 220 207 204 206 206 206 210 204 209 205 203 203 205 206 206 209 206 209 207 206 206 209 208 206 206 210 210 211 216 218
214 195 220 225 225 213 208 207 204 205 209 209 210 204 207 205 206 206 205 204 205 206 205 207 207 208 207 207 208 211 213 214 219
277 263 267 244 225 214 213 209 207 203 209 208 208 205 208 209 207 206 204 203 205 206 204 205 207 208 209 207 210 212 212 212 215
288 284 282 270 238 225 220 217 211 208 209 208 205 206 210 208 205 205 207 205 205 204 206 206 205 208 208 208 211 209 198 208 213
278 273 273 259 238 230 227 213 213 213 208 204 203 210 207 209 204 207 206 203 204 208 209 205 209 208 209 211 213 200 192 194 213
268 260 263 262 259 243 230 231 228 213 208 204 203 204 204 204 207 208 203 203 206 209 207 212 213 214 213 213 217 196 191 191 211
253 255 258 263 264 264 261 246 241 240 205 200 204 202 204 202 203 206 204 208 210 209 207 209 217 221 222 224 228 193 183 184 207
251 253 260 264 264 261 247 240 231 209 203 202 206 206 206 199 199 201 205 208 207 206 209 214 214 216 218 221 228 193 192 195 212
300 297 282 271 256 248 242 217 208 204 199 210 210 207 209 206 204 202 205 203 203 201 204 212 211 213 211 216 216 216 189 196 214
278 279 279 267 253 231 224 227 216 205 208 212 199 203 206 204 204 206 202 206 203 202 204 208 213 217 222 196 209 210 192 198 208
260 263 270 268 238 206 202 209 208 200 206 200 197 203 200 205 203 207 215 199 203 204 208 215 214 217 221 216 204 204 193 192 206
267 255 256 263 208 187 164 149 154 154 165 182 188 200 205 208 212 211 210 208 204 212 214 213 221 217 222 217 218 211 193 204 195
223 206 50 60 116 116 102 92 91 82 75 176 193 199 205 206 210 202 210 220 213 216 227 219 221 226 235 226 222 217 205 183 180
157 120 93 81 70 78 77 77 75 69 62 53 55 192 192 208 223 208 208 226 221 52 5 326 270 253 238 231 222 141 139 148 135
27 77 90 67 51 55 64 60 53 36 28 59 66 50 357 280 245 261 264 236 241 244 191 48 319 285 246 187 161 149 150 145 148